[[{"header":{"parameterUnit":"m.s-1","parameterCategory":1,"la1":30.2991,"la2":30.254,"lo1":-89.0895,"lo2":-89.0444,"dy":0.0017,"dx":0.0017,"nx":28,"ny":28,"refTime":"2023-08-09T03:00:00:Z","depth":0,"parameterNumber":2,"parameterNumberName":"U-component_of_WINDS"},"data":[0,0,0,0,0,0,0,0,0,0,0,0,0,0,0,0,0,0,0,0,0,0,0,0,0,0,0,0,0,0,0,0,0,0,0,0,0,0,0,0,0,0,0,0,0,0,0,0,0,0,0,0,0,0,0,0,0,0,4.7136,4.7137,0,4.7216,4.7217,4.7217,4.7135,4.7132,4.7129,4.7126,4.7205,4.721,4.7215,0,0,0,0,0,0,0,0,0,0,0,0,0,4.6909,4.6913,4.7136,4.7137,4.7138,4.7216,4.7217,4.7218,4.7136,4.7132,4.7128,4.7124,4.7203,4.7209,4.7215,0,0,0,0,0,0,0,0,0,0,0,0,0,4.7,4.6915,4.7136,4.7106,4.7105,4.7215,4.7217,4.7218,4.7137,4.7132,4.7127,4.7123,4.7201,4.7208,4.7216,4.7358,0,0,4.7239,4.7242,0,0,0,0,0,0,0,0,4.6995,4.7008,4.711,4.7109,4.7107,4.7161,4.7165,4.7265,4.7138,4.7124,4.7126,4.712,4.7194,4.7202,4.7227,4.7362,4.7365,4.724,4.7244,4.7248,4.725,0,0,0,0,0,0,0,4.6989,4.7004,4.7167,4.7111,4.711,4.7088,4.7096,4.7184,4.7185,4.7125,4.7119,4.713,4.7192,4.722,4.7228,4.7367,4.7239,4.7246,4.7251,4.7254,4.7619,4.7624,0,0,0,0,0,0,4.6986,4.7,4.7165,4.717,4.7038,4.7096,4.7105,4.7148,4.7184,4.7184,4.7134,4.7126,4.7209,4.7219,4.7231,4.7396,4.7248,4.7255,4.7259,4.7614,4.762,4.7626,0,0,0,0,0,0,4.6981,4.7001,4.7161,4.7083,4.7102,4.7105,4.7155,4.7152,4.718,4.719,4.719,4.7163,4.7206,4.722,4.7327,4.7398,4.7258,4.7265,4.7608,4.7616,4.7623,4.7731,0,0,0,0,0,0,4.6975,4.7,4.7055,4.7085,4.7106,4.7258,4.7159,4.7157,4.7194,4.7184,4.7217,4.7218,4.7203,4.7316,4.7334,4.7406,4.7271,4.7601,4.7612,4.7621,4.7721,4.7742,4.776,0,0,0,0,0,4.6967,4.7083,4.7059,4.7079,4.7176,4.7262,4.7274,4.7255,4.72,4.7254,4.7261,4.7217,4.7389,4.7327,4.7347,4.7423,4.7597,4.7609,4.762,4.7713,4.7738,4.7759,0,0,0,0,0,0,4.706,4.7086,4.7059,4.7188,4.7224,4.7248,4.7316,4.7283,4.7334,4.7323,4.7297,4.7305,4.7417,4.7431,4.7363,4.7561,4.7483,4.7499,4.7547,4.7571,4.759,4.7582,4.7277,0,0,0,0,0,4.7096,4.7166,4.7184,4.7296,4.7315,4.7313,4.735,4.7333,4.7368,4.7382,4.7396,4.7431,4.7492,4.7533,4.759,4.7725,4.7728,4.7786,4.7805,4.7821,4.7834,4.7902,4.7926,4.7664,4.7664,4.7664,0,0,4.717,4.7193,4.7238,4.7315,4.734,4.741,4.7326,4.7404,4.7455,4.7393,4.7494,4.7506,4.7543,4.7663,4.7717,4.7678,4.7908,4.7836,4.7848,4.7852,4.7916,4.7941,4.7963,4.7672,4.767,4.7669,0,0,4.734,4.7366,4.746,4.7487,4.7527,4.7525,4.7548,4.7577,4.7583,4.7684,4.7638,4.7699,4.7806,4.7833,4.7861,4.8041,4.8001,4.8061,4.8158,4.8225,4.8246,4.8264,4.8324,4.8346,4.8075,4.8075,4.8075,0,4.7426,4.7531,4.7512,4.7594,4.7627,4.7576,4.767,4.7697,4.7753,4.7777,4.7734,4.7866,4.7887,4.8011,4.8055,4.8081,4.8104,4.8055,4.8245,4.8263,4.8279,4.8336,4.8359,4.8082,4.8081,4.808,4.808,0,4.7633,4.7707,4.7778,4.7834,4.7876,4.7964,4.7956,4.8002,4.7981,4.7983,4.8086,4.811,4.817,4.8199,4.818,4.832,4.8294,4.8249,4.8169,4.8311,4.8364,4.8386,4.8091,4.8089,4.8087,4.8085,0,0,4.7861,4.7905,4.7931,4.7955,4.7995,4.8051,4.8136,4.8195,4.8232,4.8274,4.8341,4.8433,4.8391,4.8423,4.8407,4.8466,4.8602,4.8413,4.8413,4.8443,4.8753,4.8784,4.8809,4.8578,4.8582,4.8586,4.8748,0,4.8028,4.8175,4.816,4.8299,4.8365,4.8317,4.839,4.8422,4.8427,4.8482,4.8487,4.8551,4.8493,4.8511,4.8568,4.8574,4.8663,4.8562,4.8637,4.864,4.8625,4.8838,4.8871,4.9023,4.8769,4.8773,4.8776,0,4.8242,4.829,4.8436,4.8464,4.8491,4.8557,4.8609,4.8664,4.8699,4.8697,4.8733,4.8707,4.8789,4.8712,4.8823,4.8755,4.8785,4.8793,4.8798,4.8801,4.8713,4.8841,4.9072,4.9093,4.8809,4.8806,4.8804,0,4.8388,4.849,4.8589,4.8611,4.8648,4.8695,4.8712,4.8742,4.8778,4.8824,4.8846,4.8902,4.8931,4.8973,4.8961,4.8906,4.9074,4.8996,4.9072,4.9072,4.9106,4.9103,4.9339,4.9134,4.9133,4.9133,4.9132,0,4.8573,4.8663,4.8654,4.8715,4.8813,4.8796,4.8894,4.8905,4.8932,4.8992,4.8956,4.9013,4.8996,4.9052,4.9044,4.9135,4.915,4.9149,4.9145,4.915,4.9149,4.9166,4.9153,4.9139,4.9138,4.9136,4.9135,0,4.875,4.8749,4.8853,4.888,4.8889,4.896,4.8982,4.9038,4.904,4.9117,4.9134,4.9137,4.9201,4.9194,4.9266,4.926,4.9372,4.9358,4.936,4.9355,4.943,4.9421,4.9681,4.9712,4.9491,4.9493,4.9495,0,4.8866,4.8934,4.8968,4.9006,4.9027,4.909,4.9126,4.9112,4.9151,4.9195,4.9245,4.9306,4.9353,4.9457,4.9465,4.9519,4.9502,4.959,4.951,4.9512,4.9498,4.9492,4.9497,4.9604,4.9607,4.9609,4.961,0,4.9071,4.9067,4.9121,4.9176,4.9221,4.9263,4.9301,4.9334,4.9323,4.9369,4.9434,4.9471,4.9544,4.9603,4.9655,4.967,4.9638,4.9636,4.9656,4.9659,4.9655,4.9653,4.9398,4.9629,4.9627,4.9626,4.9625,4.9624,4.9218,4.9275,4.9307,4.9368,4.9396,4.9432,4.9485,4.9494,4.9549,4.9607,4.9596,4.9668,4.9699,4.9765,4.9786,4.9841,4.9809,4.9838,4.9845,4.9851,4.9858,4.9651,4.9851,4.985,4.985,4.985,4.9849,0,4.9416,4.9435,4.9492,4.9546,4.9594,4.9562,4.9602,4.9644,4.9708,4.9741,4.9788,4.9862,4.9919,4.9932,4.9986,5.0028,5.0014,5.0042,5.0036,5.0039,4.9886,4.9861,5.0052,5.0052,5.0052,5.0052,5.0052,5.0052,4.9525,4.9618,4.9618,4.9724,4.9742,4.9813,4.9838,4.987,4.9896,4.998,5.0027,5.0036,5.0059,5.0115,5.0166,5.0168,5.0187,5.0221,5.0216,5.0071,5.0051,5.0031,5.0008,5.0226,5.0227,5.0365,5.0366,5.0367]},{"header":{"parameterUnit":"m.s-1","parameterCategory":1,"la1":30.2991,"la2":30.254,"lo1":-89.0895,"lo2":-89.0444,"dy":0.0017,"dx":0.0017,"nx":28,"ny":28,"refTime":"2023-08-09T03:00:00:Z","depth":0,"parameterNumber":3,"parameterNumberName":"V-component_of_WINDS"},"data":[0,0,0,0,0,0,0,0,0,0,0,0,0,0,0,0,0,0,0,0,0,0,0,0,0,0,0,0,0,0,0,0,0,0,0,0,0,0,0,0,0,0,0,0,0,0,0,0,0,0,0,0,0,0,0,0,0,0,2.7287,2.7287,0,2.7346,2.7346,2.7347,2.7324,2.7322,2.7321,2.732,2.7377,2.738,2.7383,0,0,0,0,0,0,0,0,0,0,0,0,0,2.7149,2.7152,2.7287,2.7287,2.7288,2.7346,2.7346,2.7347,2.7324,2.7322,2.7321,2.7319,2.7376,2.7379,2.7383,0,0,0,0,0,0,0,0,0,0,0,0,0,2.7208,2.7152,2.7286,2.7283,2.7284,2.7345,2.7346,2.7347,2.7324,2.7322,2.732,2.7318,2.7375,2.7379,2.7383,2.745,0,0,2.7396,2.7398,0,0,0,0,0,0,0,0,2.7205,2.7213,2.7283,2.7284,2.7284,2.7325,2.7319,2.7382,2.7325,2.7309,2.732,2.7317,2.7361,2.7366,2.7382,2.7453,2.7456,2.7397,2.7399,2.7401,2.7402,0,0,0,0,0,0,0,2.7201,2.7211,2.731,2.7284,2.7285,2.7278,2.7284,2.7331,2.7346,2.731,2.7309,2.7316,2.7361,2.7378,2.7383,2.7456,2.7396,2.74,2.7403,2.7404,2.7582,2.7584,0,0,0,0,0,0,2.7197,2.7207,2.7308,2.7312,2.7239,2.7282,2.7289,2.7314,2.7345,2.7348,2.7318,2.7315,2.7372,2.7378,2.7385,2.7464,2.7401,2.7405,2.7407,2.758,2.7583,2.7585,0,0,0,0,0,0,2.7194,2.7206,2.7306,2.7259,2.7271,2.7286,2.7315,2.7316,2.7333,2.7351,2.7353,2.7332,2.737,2.7379,2.7434,2.7466,2.7407,2.7411,2.7578,2.7581,2.7584,2.7623,0,0,0,0,0,0,2.719,2.7206,2.7233,2.726,2.7274,2.7355,2.7317,2.7319,2.7341,2.7338,2.7365,2.7368,2.7369,2.7428,2.7438,2.747,2.7414,2.7575,2.7579,2.7583,2.7619,2.7627,2.7634,0,0,0,0,0,2.7186,2.7241,2.7234,2.7246,2.7308,2.7357,2.7365,2.7366,2.7344,2.737,2.7381,2.7367,2.7461,2.7434,2.7445,2.7479,2.7573,2.7578,2.7583,2.7615,2.7626,2.7634,0,0,0,0,0,0,2.7216,2.7245,2.7237,2.7304,2.7328,2.7353,2.7386,2.7377,2.7408,2.7403,2.7403,2.7409,2.7465,2.7478,2.7447,2.7544,2.7513,2.752,2.7534,2.7544,2.7551,2.7547,2.7417,0,0,0,0,0,2.7231,2.727,2.7292,2.7348,2.7361,2.7371,2.7393,2.7392,2.7417,2.7427,2.7442,2.7465,2.75,2.7523,2.7555,2.7621,2.7625,2.7649,2.7657,2.7663,2.7669,2.7702,2.7713,2.7601,2.7601,2.7601,0,0,2.7261,2.7282,2.7306,2.7355,2.7374,2.7412,2.738,2.7423,2.745,2.7433,2.7485,2.7497,2.7523,2.7583,2.761,2.7595,2.7701,2.767,2.7674,2.7677,2.7708,2.7719,2.7728,2.7605,2.7604,2.7604,0,0,2.7336,2.7356,2.7404,2.7423,2.7452,2.7459,2.747,2.7496,2.7503,2.7556,2.7543,2.7575,2.7635,2.7654,2.7671,2.775,2.7738,2.7761,2.7801,2.7833,2.7842,2.7849,2.7876,2.7885,2.7767,2.7767,2.7767,0,2.737,2.7428,2.743,2.7473,2.7493,2.7479,2.7526,2.7545,2.7583,2.7597,2.7579,2.7653,2.767,2.7732,2.7751,2.7767,2.7778,2.7758,2.784,2.7848,2.7855,2.788,2.7891,2.777,2.7769,2.7769,2.7769,0,2.7467,2.7508,2.7543,2.758,2.7605,2.765,2.7656,2.768,2.7676,2.7684,2.7736,2.7756,2.7791,2.7806,2.7803,2.7868,2.7857,2.784,2.7809,2.7868,2.7892,2.7902,2.7773,2.7772,2.7772,2.7771,0,0,2.7564,2.76,2.7613,2.7628,2.7658,2.7689,2.7732,2.7767,2.7787,2.7813,2.7848,2.7898,2.7882,2.7901,2.79,2.7928,2.7987,2.7908,2.7908,2.792,2.8057,2.8068,2.808,2.7979,2.7981,2.7983,2.8054,0,2.764,2.7717,2.7718,2.7787,2.7823,2.781,2.7847,2.7868,2.7876,2.7906,2.7914,2.7949,2.7926,2.7938,2.7965,2.7974,2.8014,2.7969,2.801,2.8011,2.8003,2.8092,2.8105,2.8172,2.8063,2.8065,2.8066,0,2.7739,2.7768,2.7841,2.7864,2.7879,2.7913,2.7943,2.7973,2.7996,2.8,2.8021,2.8014,2.8056,2.8024,2.808,2.8049,2.8066,2.8072,2.8075,2.8078,2.8042,2.8096,2.8193,2.8203,2.8081,2.808,2.8079,0,2.7799,2.7857,2.7908,2.7922,2.795,2.7973,2.7986,2.8007,2.8027,2.8054,2.8067,2.8098,2.8114,2.8138,2.8139,2.8116,2.8195,2.8163,2.8197,2.8197,2.8214,2.8213,2.8313,2.8227,2.8227,2.8226,2.8226,0,2.7883,2.7928,2.7935,2.7966,2.8015,2.8015,2.8063,2.8074,2.8092,2.8124,2.8113,2.8143,2.8143,2.8173,2.8174,2.8219,2.8227,2.8229,2.8229,2.823,2.8229,2.824,2.8235,2.8229,2.8228,2.8228,2.8227,0,2.7959,2.7966,2.802,2.8042,2.8048,2.8083,2.8101,2.813,2.8136,2.8176,2.8185,2.8194,2.8228,2.8232,2.8271,2.8272,2.8326,2.8321,2.8318,2.8317,2.835,2.8346,2.846,2.8474,2.838,2.8381,2.8381,0,2.8012,2.8046,2.8071,2.8092,2.8106,2.8139,2.8159,2.816,2.8181,2.8209,2.8233,2.8267,2.8293,2.8347,2.8357,2.8386,2.8381,2.8419,2.8385,2.8384,2.838,2.8377,2.8379,2.8425,2.8426,2.8427,2.8428,0,2.8104,2.8105,2.8135,2.8166,2.8191,2.8215,2.8238,2.8255,2.8258,2.8282,2.8317,2.8337,2.8377,2.8409,2.8438,2.8449,2.8438,2.8438,2.8447,2.8448,2.8444,2.8445,2.8334,2.8436,2.8435,2.8434,2.8434,2.8433,2.8168,2.8197,2.8219,2.8252,2.8269,2.829,2.8318,2.8327,2.8356,2.8389,2.8387,2.8425,2.8444,2.8482,2.8495,2.8523,2.851,2.8524,2.8527,2.853,2.8533,2.8441,2.8529,2.8528,2.8528,2.8528,2.8528,0,2.8258,2.8271,2.8302,2.8334,2.8359,2.8348,2.8372,2.8393,2.8427,2.8447,2.8472,2.8511,2.8542,2.8553,2.8582,2.8602,2.8598,2.861,2.8608,2.861,2.8543,2.8532,2.8613,2.8613,2.8613,2.8613,2.8613,2.8613,2.8308,2.8355,2.8358,2.8413,2.8425,2.8463,2.8477,2.8495,2.8511,2.8555,2.858,2.8587,2.8603,2.8633,2.866,2.8662,2.8672,2.8686,2.8686,2.8624,2.8615,2.8607,2.8596,2.8689,2.8689,2.875,2.8751,2.8751]}]]